COSMOS 540

Satellite information

Favourite Embed

Satellite Type and Status

PAYLOADIN ORBIT

Key statistics

Satellite COSMOS 540 at a glance.

Uptime

19125

Days in orbit

Revolutions

≈ 14.4

Per day

Orbit

LEO

Low Earth Orbit

Inclination

74.1

Latest

Satellite identification and parameters

Extended collection of information and parameters for COSMOS 540.

Object identification

Identified? True

Debris? False

Object name: COSMOS 540

International designator: 1972-104A

Object number (NORAD): 6323

Object ID (CCSDS): 6323

Country: COMMONWEALTH OF INDEPENDENT STATES (CIS)

Current information (Y/N): Y

RCS size: LARGE

Orbital parameters

Period: 100.186 minutes

Inclination: 74.0781 deg

SMA: 7145.481 km

Apoapsis: 780.407 km

Periapsis: 754.286 km

RAAN: 127.0647 deg

Eccentricy: 0.0018278

Argument of periapsis: 201.161 deg

Mean anomaly: 158.879 deg

Mean motion: 14.37326778 rev/day

Mean motion (dot): 0.00000266 rev/day2

B* drag term: 0.000097728 1/REarth

Two-line elements (TLE)

Creation date: May 6, 2025, 3:54 a.m.

Reference frame: TEME

Reference center: EARTH

Epoch: May 5, 2025, 9:17 p.m. UTC

TLE line 0: 0 COSMOS 540

TLE line 1: 1 06323U 72104A 25125.88685550 .00000266 00000-0 97728-4 0 9999

TLE line 2: 2 06323 74.0781 127.0647 0018278 201.1610 158.8790 14.37326778740497

Live tracking on map

Real-time ground track for satellite COSMOS 540.

In-orbit conjunctions

A list of the most updated potential collisions computed for object COSMOS 540.

Target Orbit TCA Probability of collision Miss distance Type
CZ-6A DEB LEO 2025-04-13 07:47:55 0.000165406 604.0 (m) DEBRIS
THORAD AGENA D DEB LEO 2025-01-18 06:44:27 0.0001147476 379.0 (m) DEBRIS
COSMOS 2251 DEB LEO 2025-01-08 15:50:57 0.0002670687 113.0 (m) DEBRIS
CZ-4 DEB SSO 2024-11-11 15:18:22 0.001478399 255.0 (m) DEBRIS
CZ-2D DEB SSO 2024-10-29 03:56:05 0.0001133675 373.0 (m) DEBRIS

Associated space launch

Military communications satellite

COSMOS 540 was lifted into orbit during the mission ‘Kosmos-3M | Strela-2M 7’, on board a Kosmos-3M space rocket.

The launch took place on Dec. 25, 1972, 11:05 p.m. from 132/2.

For more information about the launch, click the button.

Launch to space Kosmos-3M | Strela-2M 7
Kosmos-3M | Strela-2M 7

Agency: N/A

Status: Launch Successful

Launch date: Dec. 25, 1972, 11:05 p.m. UTC

Rocket: Kosmos-3M

Launch pad: 132/2

Location: Plesetsk Cosmodrome, Russian Federation

...

Latest news about this satellite

There are no fresh news available about this satellite. Check back as we update our databases every day.


Newsletter sign-up

Weekly statistics, charts and insights to help you stay on top of the space industry.